| time (UTC) | temp F | wind direction | speed MPH | gust MPH | rain 1hr in | rain 24hr in | rain mn in | humidity % | barometer mb |
| 20260905094538 | 73 | 324 | 0.0 | 0.0 | 0.00 | 0.00 | 0.00 | 94 | 1006.0 |
| 20260905093543 | 73 | 324 | 0.0 | 0.0 | 0.00 | 0.00 | 0.00 | 94 | 1006.0 |
| 20260905092534 | 73 | 324 | 0.0 | 1.0 | 0.00 | 0.00 | 0.00 | 93 | 1006.0 |
| 20260905091509 | 73 | 302 | 0.0 | 0.0 | 0.00 | 0.00 | 0.00 | 93 | 1006.0 |
| 20260905085316 | 74 | 302 | 0.0 | 0.0 | 0.00 | 0.00 | 0.00 | 92 | 1006.4 |
| 20260905084335 | 74 | 302 | 0.0 | 0.0 | 0.00 | 0.00 | 0.00 | 91 | 1006.5 |
| 20260905083333 | 74 | 302 | 0.0 | 0.0 | 0.00 | 0.00 | 0.00 | 91 | 1006.5 |
| 20260905082317 | 74 | 302 | 0.0 | 0.0 | 0.00 | 0.00 | 0.00 | 90 | 1006.4 |
| 20260905081251 | 75 | 302 | 0.0 | 0.0 | 0.00 | 0.00 | 0.00 | 90 | 1006.7 |
| 20260905080312 | 75 | 302 | 0.0 | 0.0 | 0.00 | 0.00 | 0.00 | 90 | 1006.7 |
| 20260905075238 | 75 | 268 | 0.0 | 0.0 | 0.00 | 0.00 | 0.00 | 89 | 1006.5 |
| 20260905074231 | 75 | 178 | 0.0 | 1.0 | 0.00 | 0.00 | 0.00 | 89 | 1006.8 |
| 20260905073243 | 75 | 188 | 0.0 | 0.0 | 0.00 | 0.00 | 0.00 | 89 | 1006.8 |
| 20260905072252 | 75 | 188 | 0.0 | 0.0 | 0.00 | 0.00 | 0.00 | 89 | 1006.9 |
| 20260905070108 | 75 | 185 | 0.0 | 0.0 | 0.00 | 0.00 | 0.00 | 88 | 1006.9 |
| 20260905065100 | 75 | 181 | 0.0 | 0.0 | 0.00 | 0.00 | 0.00 | 88 | 1007.3 |
| 20260905062847 | 75 | 164 | 0.0 | 0.0 | 0.00 | 0.00 | 0.00 | 88 | 1007.5 |
| 20260905061816 | 75 | 165 | 0.0 | 0.0 | 0.00 | 0.00 | 0.00 | 89 | 1007.5 |
| 20260905060817 | 75 | 140 | 0.0 | 1.0 | 0.00 | 0.00 | 0.00 | 88 | 1007.9 |
| 20260905055753 | 75 | 46 | 0.0 | 0.0 | 0.00 | 0.00 | 0.00 | 89 | 1007.9 |
| 20260905053642 | 76 | 90 | 0.0 | 0.0 | 0.00 | 0.00 | 0.00 | 89 | 1008.0 |
| 20260905052708 | 76 | 90 | 0.0 | 0.0 | 0.00 | 0.00 | 0.00 | 89 | 1008.4 |
| 20260905051715 | 76 | 90 | 0.0 | 0.0 | 0.00 | 0.00 | 0.00 | 89 | 1008.4 |
| 20260905045555 | 77 | 88 | 0.0 | 0.0 | 0.00 | 0.00 | 0.00 | 89 | 1008.9 |
| 20260905044546 | 77 | 305 | 0.0 | 0.0 | 0.00 | 0.00 | 0.00 | 88 | 1008.9 |
| 20260905043546 | 77 | 123 | 0.0 | 3.0 | 0.00 | 0.00 | 0.00 | 88 | 1009.0 |
| 20260905042552 | 77 | 98 | 0.0 | 1.0 | 0.00 | 0.00 | 0.00 | 88 | 1009.0 |
| 20260905040424 | 77 | 106 | 0.0 | 1.0 | 0.00 | 0.00 | 0.00 | 89 | 1009.0 |
| 20260905034248 | 77 | 198 | 0.0 | 1.0 | 0.00 | 0.00 | 0.00 | 89 | 1009.1 |
| 20260905033223 | 76 | 110 | 0.0 | 2.0 | 0.00 | 0.00 | 0.00 | 89 | 1009.1 |
| 20260905032236 | 76 | 98 | 0.0 | 4.0 | 0.00 | 0.00 | 0.00 | 89 | 1009.1 |
| 20260905031208 | 76 | 226 | 0.0 | 4.0 | 0.00 | 0.00 | 0.00 | 88 | 1009.3 |
| 20260905030143 | 76 | 86 | 0.0 | 2.0 | 0.00 | 0.00 | 0.00 | 88 | 1009.3 |
| 20260905024045 | 77 | 45 | 0.0 | 0.0 | 0.00 | 0.00 | 0.00 | 88 | 1009.2 |
| 20260905023100 | 77 | 23 | 0.0 | 4.0 | 0.00 | 0.00 | 0.00 | 87 | 1009.2 |
| 20260905022104 | 77 | 359 | 1.0 | 4.0 | 0.00 | 0.00 | 0.00 | 87 | 1009.5 |
| 20260905021116 | 77 | 15 | 0.0 | 3.0 | 0.00 | 0.00 | 0.00 | 87 | 1009.1 |
| 20260905020121 | 78 | 16 | 1.0 | 3.0 | 0.00 | 0.00 | 0.00 | 86 | 1009.1 |
| 20260905015144 | 78 | 13 | 1.0 | 4.0 | 0.00 | 0.00 | 0.00 | 85 | 1009.2 |
| 20260905014143 | 79 | 27 | 1.0 | 4.0 | 0.00 | 0.00 | 0.00 | 83 | 1009.5 |
| 20260905013135 | 80 | 4 | 2.0 | 4.0 | 0.00 | 0.00 | 0.00 | 82 | 1009.5 |
| 20260905012149 | 81 | 4 | 3.0 | 6.0 | 0.00 | 0.00 | 0.00 | 79 | 1009.6 |
| 20260905011127 | 84 | 3 | 2.0 | 6.0 | 0.00 | 0.00 | 0.00 | 74 | 1009.2 |
| 20260905010134 | 85 | 30 | 0.0 | 3.0 | 0.00 | 0.00 | 0.00 | 73 | 1009.2 |
| 20260905005107 | 85 | 1 | 0.0 | 5.0 | 0.00 | 0.00 | 0.00 | 74 | 1008.0 |
| 20260905004128 | 86 | 37 | 1.0 | 5.0 | 0.00 | 0.00 | 0.00 | 78 | 1006.7 |
| 20260905003134 | 86 | 205 | 0.0 | 3.0 | 0.00 | 0.00 | 0.00 | 75 | 1006.7 |
| 20260905002138 | 86 | 119 | 0.0 | 3.0 | 0.00 | 0.00 | 0.00 | 76 | 1007.0 |
| 20260905001132 | 85 | 190 | 0.0 | 3.0 | 0.00 | 0.00 | 0.00 | 79 | 1006.5 |
| 20260905000112 | 85 | 100 | 0.0 | 1.0 | 0.00 | 0.00 | 0.00 | 77 | 1006.5 |
| 20260904235116 | 85 | 239 | 0.0 | 2.0 | 0.00 | 0.00 | 0.00 | 78 | 1006.6 |
| 20260904234050 | 86 | 345 | 0.0 | 0.0 | 0.00 | 0.00 | 0.00 | 78 | 1006.9 |
| 20260904233017 | 86 | 345 | 0.0 | 1.0 | 0.00 | 0.00 | 0.00 | 77 | 1006.9 |
| 20260904231954 | 87 | 252 | 0.0 | 0.0 | 0.00 | 0.00 | 0.00 | 77 | 1007.2 |
| 20260904230946 | 88 | 252 | 0.0 | 0.0 | 0.00 | 0.00 | 0.00 | 76 | 1007.0 |
| 20260904225923 | 88 | 252 | 0.0 | 0.0 | 0.00 | 0.00 | 0.00 | 74 | 1007.0 |
| 20260904224937 | 89 | 252 | 0.0 | 0.0 | 0.00 | 0.00 | 0.00 | 73 | 1006.7 |
| 20260904223939 | 90 | 263 | 0.0 | 0.0 | 0.00 | 0.00 | 0.00 | 73 | 1006.5 |
| 20260904221759 | 90 | 359 | 0.0 | 0.0 | 0.00 | 0.00 | 0.00 | 71 | 1006.7 |
| 20260904220756 | 89 | 359 | 0.0 | 1.0 | 0.00 | 0.00 | 0.00 | 74 | 1007.0 |
| 20260904215820 | 90 | 359 | 0.0 | 0.0 | 0.00 | 0.00 | 0.00 | 73 | 1007.0 |
| 20260904214746 | 90 | 228 | 0.0 | 0.0 | 0.00 | 0.00 | 0.00 | 72 | 1007.0 |
| 20260904213721 | 91 | 213 | 0.0 | 0.0 | 0.00 | 0.00 | 0.00 | 72 | 1006.9 |
| 20260904212720 | 91 | 132 | 0.0 | 0.0 | 0.00 | 0.00 | 0.00 | 72 | 1006.9 |
| 20260904211704 | 92 | 132 | 0.0 | 1.0 | 0.00 | 0.00 | 0.00 | 69 | 1006.9 |
| 20260904210710 | 93 | 356 | 0.0 | 3.0 | 0.00 | 0.00 | 0.00 | 71 | 1007.0 |
| 20260904205714 | 94 | 82 | 0.0 | 2.0 | 0.00 | 0.00 | 0.00 | 69 | 1006.5 |
| 20260904204729 | 92 | 5 | 0.0 | 2.0 | 0.00 | 0.00 | 0.00 | 76 | 1006.5 |
| 20260904203712 | 92 | 356 | 0.0 | 1.0 | 0.00 | 0.00 | 0.00 | 73 | 1006.4 |
| 20260904202720 | 95 | 283 | 0.0 | 4.0 | 0.00 | 0.00 | 0.00 | 64 | 1006.9 |
| 20260904201740 | 98 | 52 | 0.0 | 1.0 | 0.00 | 0.00 | 0.00 | 54 | 1006.9 |
| 20260904200715 | 99 | 122 | 1.0 | 6.0 | 0.00 | 0.00 | 0.00 | 51 | 1007.3 |
| 20260904195703 | 100 | 62 | 1.0 | 6.0 | 0.00 | 0.00 | 0.00 | 50 | 1007.4 |
| 20260904192431 | 100 | 167 | 2.0 | 8.0 | 0.00 | 0.00 | 0.00 | 50 | 1007.8 |
| 20260904191359 | 100 | 89 | 1.0 | 8.0 | 0.00 | 0.00 | 0.00 | 50 | 1008.2 |
| 20260904190357 | 100 | 76 | 1.0 | 8.0 | 0.00 | 0.00 | 0.00 | 51 | 1008.2 |
| 20260904185346 | 99 | 9 | 1.0 | 6.0 | 0.00 | 0.00 | 0.00 | 53 | 1008.4 |
| 20260904184323 | 99 | 270 | 0.0 | 4.0 | 0.00 | 0.00 | 0.00 | 51 | 1008.9 |
| 20260904183341 | 99 | 154 | 1.0 | 5.0 | 0.00 | 0.00 | 0.00 | 49 | 1008.9 |
| 20260904182339 | 99 | 93 | 1.0 | 5.0 | 0.00 | 0.00 | 0.00 | 53 | 1008.9 |
| 20260904181331 | 99 | 256 | 1.0 | 8.0 | 0.00 | 0.00 | 0.00 | 54 | 1009.2 |
| 20260904175200 | 98 | 205 | 1.0 | 4.0 | 0.00 | 0.00 | 0.00 | 56 | 1009.4 |
| 20260904174144 | 98 | 272 | 1.0 | 5.0 | 0.00 | 0.00 | 0.00 | 56 | 1009.5 |
| 20260904172018 | 96 | 117 | 1.0 | 5.0 | 0.00 | 0.00 | 0.00 | 59 | 1009.4 |
| 20260904171008 | 97 | 214 | 1.0 | 5.0 | 0.00 | 0.00 | 0.00 | 58 | 1009.5 |
| 20260904170002 | 96 | 232 | 1.0 | 5.0 | 0.00 | 0.00 | 0.00 | 59 | 1009.5 |
| 20260904164931 | 96 | 108 | 1.0 | 5.0 | 0.00 | 0.00 | 0.00 | 61 | 1009.7 |
| 20260904163932 | 95 | 97 | 1.0 | 4.0 | 0.00 | 0.00 | 0.00 | 60 | 1010.0 |
| 20260904162908 | 95 | 3 | 1.0 | 5.0 | 0.00 | 0.00 | 0.00 | 63 | 1010.2 |
| 20260904161915 | 94 | 345 | 1.0 | 5.0 | 0.00 | 0.00 | 0.00 | 63 | 1010.2 |
| 20260904155757 | 93 | 214 | 1.0 | 5.0 | 0.00 | 0.00 | 0.00 | 65 | 1010.5 |
| 20260904154750 | 93 | 177 | 1.0 | 5.0 | 0.00 | 0.00 | 0.00 | 66 | 1010.5 |
| 20260904153755 | 92 | 170 | 1.0 | 6.0 | 0.00 | 0.00 | 0.00 | 66 | 1010.5 |
| 20260904152817 | 91 | 25 | 1.0 | 6.0 | 0.00 | 0.00 | 0.00 | 69 | 1010.6 |
| 20260904151817 | 91 | 138 | 1.0 | 6.0 | 0.00 | 0.00 | 0.00 | 70 | 1010.6 |
| 20260904144549 | 89 | 78 | 1.0 | 6.0 | 0.00 | 0.00 | 0.00 | 72 | 1010.6 |
| 20260904143523 | 88 | 210 | 1.0 | 6.0 | 0.00 | 0.00 | 0.00 | 72 | 1010.6 |
| 20260904142453 | 88 | 159 | 1.0 | 4.0 | 0.00 | 0.00 | 0.00 | 74 | 1010.6 |
| 20260904141436 | 87 | 120 | 1.0 | 6.0 | 0.00 | 0.00 | 0.00 | 75 | 1010.6 |
| 20260904135306 | 84 | 200 | 1.0 | 9.0 | 0.00 | 0.00 | 0.00 | 79 | 1010.5 |
| 20260904134309 | 83 | 78 | 1.0 | 8.0 | 0.00 | 0.00 | 0.00 | 82 | 1010.6 |
| 20260904133332 | 82 | 162 | 1.0 | 8.0 | 0.00 | 0.00 | 0.00 | 82 | 1010.6 |
| 20260904132310 | 82 | 160 | 0.0 | 0.0 | 0.00 | 0.00 | 0.00 | 85 | 1010.7 |
| 20260904131331 | 81 | 135 | 1.0 | 8.0 | 0.00 | 0.00 | 0.00 | 86 | 1010.7 |
| 20260904130307 | 80 | 112 | 0.0 | 4.0 | 0.00 | 0.00 | 0.00 | 88 | 1010.7 |
| 20260904125322 | 79 | 355 | 0.0 | 4.0 | 0.00 | 0.00 | 0.00 | 89 | 1010.7 |
| 20260904124325 | 79 | 81 | 0.0 | 4.0 | 0.00 | 0.00 | 0.00 | 90 | 1010.8 |
| 20260904123332 | 78 | 181 | 0.0 | 3.0 | 0.00 | 0.00 | 0.00 | 91 | 1010.8 |
| 20260904122341 | 78 | 68 | 0.0 | 4.0 | 0.00 | 0.00 | 0.00 | 92 | 1010.9 |
| 20260904120130 | 76 | 203 | 0.0 | 1.0 | 0.00 | 0.00 | 0.00 | 94 | 1010.8 |
| 20260904115149 | 76 | 234 | 0.0 | 2.0 | 0.00 | 0.00 | 0.00 | 94 | 1010.7 |
| 20260904114209 | 76 | 104 | 0.0 | 0.0 | 0.00 | 0.00 | 0.00 | 94 | 1010.7 |
| 20260904113217 | 76 | 104 | 0.0 | 0.0 | 0.00 | 0.00 | 0.00 | 94 | 1010.7 |
| 20260904112159 | 76 | 212 | 0.0 | 0.0 | 0.00 | 0.00 | 0.00 | 93 | 1010.7 |
| 20260904111152 | 76 | 162 | 0.0 | 0.0 | 0.00 | 0.00 | 0.00 | 93 | 1010.5 |
| 20260904110120 | 76 | 124 | 0.0 | 2.0 | 0.00 | 0.00 | 0.00 | 93 | 1010.5 |
| 20260904105131 | 76 | 191 | 0.0 | 0.0 | 0.00 | 0.00 | 0.00 | 92 | 1010.5 |
| 20260904104155 | 76 | 10 | 0.0 | 0.0 | 0.00 | 0.00 | 0.00 | 92 | 1010.4 |
| 20260904103218 | 76 | 63 | 0.0 | 0.0 | 0.00 | 0.00 | 0.00 | 92 | 1010.4 |
| 20260904102212 | 76 | 82 | 0.0 | 0.0 | 0.00 | 0.00 | 0.00 | 92 | 1010.4 |
| 20260904101205 | 76 | 181 | 0.0 | 1.0 | 0.00 | 0.00 | 0.00 | 92 | 1010.3 |
| 20260904100222 | 76 | 157 | 0.0 | 0.0 | 0.00 | 0.00 | 0.00 | 91 | 1010.3 |